Nassau, Bahamas

4:22 AM EST on February 18, 2018 (GMT -0500)
Nassau International

Weather History for MYNN - December, 2014

Change the Weather History Date:

Saturday, December 20, 2014

  Actual Average Record
Temperature  
Mean Temperature 70 °F -  
Max Temperature 81 °F 78 °F 86 °F (2005)
Min Temperature 60 °F 63 °F 60 °F (2000)
Cooling Degree Days 6    
Growing Degree Days 20 (Base 50)    
Moisture  
Dew Point 63 °F    
Average Humidity 77    
Maximum Humidity 100    
Minimum Humidity 50    
Precipitation  
Precipitation 0.00 in 0.06 in - ()
Sea Level Pressure  
Sea Level Pressure 30.09 in    
Wind  
Wind Speed 1 mph ()    
Max Wind Speed 8 mph    
Max Gust Speed -    
Visibility 6.8 miles    
Events Fog    
Averages and records for this station are not official NWS values.
T = Trace of Precipitation, MM = Missing Value Source: Averaged Metar Reports

Daily Weather History Graph

Daily Weather History Graph

Search for Another Location

Airport or City:

Trip Planner

Search our weather history database for the weather conditions in past years. The results will help you decide how hot, cold, wet, or windy it might be!

Date:

Astronomy

Dec. 20, 2014 Rise Set
Actual Time 6:50 AM EST 5:25 PM EST
Civil Twilight 6:25 AM EST 5:50 PM EST
Nautical Twilight 5:56 AM EST 6:18 PM EST
Astronomical Twilight 5:28 AM EST 6:46 PM EST
Moon 5:12 AM EST (12/20) 4:26 PM EST (12/20)
Length of Visible Light 11h 25m
Length of Day
10h 34m
Waning Crescent, 2% of the Moon is Illuminated
Dec 20
Waning Crescent
Dec 21
New
Dec 28
First Quarter
Jan 4
Full
Jan 13
Last Quarter

Hourly Weather History & Observations

Time (EST) Temp. Dew Point Humidity Pressure Visibility Wind Dir Wind Speed Gust Speed Precip Events Conditions
12:00 AM 66.2 °F 59.0 °F 78% 30.08 in - Calm Calm - N/A   Clear
1:00 AM 66 °F 64 °F 90% 30.07 in 8 mi Calm Calm - -   Scattered Clouds
1:00 AM 66.2 °F 64.4 °F 94% 30.06 in 6.2 mi Calm Calm - N/A   Partly Cloudy
2:00 AM 66.2 °F 60.8 °F 83% 30.06 in 6.2 mi Calm Calm - N/A   Partly Cloudy
3:00 AM 66.2 °F 60.8 °F 83% 30.05 in 6.2 mi Calm Calm - N/A   Partly Cloudy
4:00 AM 63 °F 62 °F 94% 30.05 in 8 mi Calm Calm - -   Scattered Clouds
4:00 AM 62.6 °F 62.6 °F 100% 30.04 in 6.2 mi Calm Calm - N/A   Partly Cloudy
5:00 AM 66.2 °F 60.8 °F 83% 30.05 in 6.2 mi Calm Calm - N/A   Partly Cloudy
6:00 AM 64.4 °F 60.8 °F 88% 30.07 in 6.2 mi Calm Calm - N/A   Partly Cloudy
7:00 AM 63 °F 62 °F 94% 30.10 in 7 mi Calm Calm - -   Partly Cloudy
7:00 AM 62.6 °F 62.6 °F 100% 30.10 in 6.2 mi Calm Calm - N/A Fog Shallow Fog
8:00 AM 68.0 °F 62.6 °F 83% 30.12 in 6.2 mi Calm Calm - N/A   Mostly Cloudy
9:00 AM 71.6 °F 66.2 °F 83% 30.13 in 6.2 mi Variable 1.2 mph - N/A   Mostly Cloudy
10:00 AM 78 °F 66 °F 59% 30.14 in 9 mi SSE 5.8 mph - -   Scattered Clouds
10:00 AM 78.8 °F 66.2 °F 65% 30.14 in 6.2 mi SSE 5.8 mph - N/A   Mostly Cloudy
11:00 AM 78.8 °F 60.8 °F 54% 30.13 in 6.2 mi SSE 8.1 mph - N/A   Mostly Cloudy
12:00 PM 78.8 °F 60.8 °F 54% 30.10 in 6.2 mi ESE 8.1 mph - N/A   Mostly Cloudy
1:00 PM 79 °F 64 °F 50% 30.09 in 9 mi ESE 5.8 mph - -   Scattered Clouds
1:00 PM 78.8 °F 64.4 °F 61% 30.09 in 6.2 mi ESE 5.8 mph - N/A   Mostly Cloudy
2:00 PM 78.8 °F 60.8 °F 54% 30.06 in 6.2 mi ESE 6.9 mph - N/A   Mostly Cloudy
3:00 PM 75.2 °F 66.2 °F 73% 30.06 in 6.2 mi Variable 1.2 mph - N/A   Mostly Cloudy
4:00 PM 77.0 °F 60.8 °F 57% 30.05 in 6.2 mi SE 6.9 mph - N/A   Mostly Cloudy
6:00 PM 73.4 °F 62.6 °F 69% 30.08 in 6.2 mi Variable 1.2 mph - N/A   Mostly Cloudy
7:00 PM 71 °F 68 °F 86% 30.09 in 9 mi Calm Calm - -   Scattered Clouds
7:00 PM 71.6 °F 66.2 °F 83% 30.09 in 6.2 mi Calm Calm - N/A   Mostly Cloudy
8:00 PM 69.8 °F 64.4 °F 83% 30.10 in 6.2 mi Calm Calm - N/A   Mostly Cloudy
10:00 PM 69 °F 63 °F 77% 30.12 in 9 mi Calm Calm - -   Scattered Clouds
10:00 PM 68.0 °F 62.6 °F 83% 30.11 in 6.2 mi Calm Calm - N/A   Scattered Clouds
11:00 PM 69.8 °F 64.4 °F 83% 30.11 in 6.2 mi Calm Calm - N/A   Partly Cloudy